User: anonymous   Login
Location: Caltech
(34.1382°N, 118.1253°W)
Time: 02:07:09
(UTC-07:00)
Language:

Cosmos 676 Rocket - Orbit

View from above orbital plane
View from above orbital plane
View from above satellite
View from above satellite

Ground track
Ground track

The orbit data is extracted from the following two-line orbital elements,

1  7434U 74071B   17083.89573838 +.00000018 +00000-0 +15133-4 0  9993
2  7434 074.0493 008.8230 0021661 298.4461 061.4509 14.36620424224339
Epoch (UTC): 24 March 2017 21:29:51
Eccentricity: 0.0021661
inclination: 74.0493°
perigee height: 754 km
apogee height: 785 km
right ascension of ascending node: 8.8230°
argument of perigee: 298.4461°
revolutions per day: 14.36620424
mean anomaly at epoch: 61.4509°
orbit number at epoch: 22433

The dashed part of the orbit path shows where the satellite is in the earth's shadow,  

DLR